This demonstration page uses our WeatherBlox Daily Observations layout. Learn more.

39.92423, -83.80882

Hourly Observations for April 26, 2015

Temp ( °F °C ) Dew Point ( °F °C ) Humidity (%) Winds ( mph kmh ) Pressure ( in mb ) Visibility ( mi km ) Precip ( " mm )
12:56 am 00:56 Cloudy 42 5.5 37 2.7 82 82 NE 9 15 29.74 1007 7 11.26538 0 0
1:56 am 01:56 Cloudy 41 5 32 0 70 70 N 13 20 29.75 1008 8 12.87472 0 0
2:56 am 02:56 Cloudy 40 4.4 32 0 73 73 NNE 12 19 29.75 1007 8 12.87472 0 0
3:56 am 03:56 Cloudy 40 4.4 32 0 73 73 NNE 10 17 29.75 1008 8 12.87472 0 0
4:56 am 04:56 Cloudy 40 4.4 32 0 73 73 NNE 13 20 29.76 1008 8 12.87472 0 0
5:56 am 05:56 Mostly Cloudy 40 4.4 32 0 73 73 NNE 15 24 29.78 1008 7 11.26538 0 0
6:56 am 06:56 Hazy 39 3.8 32 0 77 77 NNE 13 20 29.81 1009 6 9.65604 0 0
7:56 am 07:56 Hazy 38 3.3 32 0 79 79 NNE 13 20 29.82 1010 6 9.65604 0 0
8:56 am 08:56 Hazy 44 6.6 33 0.5 65 65 NNE 17 28 29.83 1010 6 9.65604 0 0
9:56 am 09:56 Sunny 47 8.3 36 2.2 66 66 NNE 16 26 29.84 1011 7 11.26538 0 0
10:56 am 10:56 Hazy 51 10.5 37 2.7 59 59 NNE 16 26 29.85 1011 6 9.65604 0 0
11:56 am 11:56 Hazy 54 12.2 37 2.7 53 53 NNE 16 26 29.87 1011 6 9.65604 0 0
12:56 pm 12:56 Sunny 56 13.3 38 3.3 51 51 N 13 20 29.87 1012 7 11.26538 0 0
1:56 pm 13:56 Hazy 57 13.8 36 2.2 46 46 N 16 26 29.86 1011 6 9.65604 0 0
2:56 pm 14:56 Hazy 58 14.4 38 3.3 48 48 N 17 28 29.86 1011 6 9.65604 0 0
3:56 pm 15:56 Hazy 59 15 38 3.3 46 46 N 15 24 29.86 1011 6 9.65604 0 0
4:56 pm 16:56 Hazy 58 14.4 36 2.2 44 44 NNW 13 20 29.85 1011 6 9.65604 0 0
5:56 pm 17:56 Partly Cloudy 58 14.4 36 2.2 44 44 N 16 26 29.86 1011 7 11.26538 0 0
6:56 pm 18:56 Sunny 54 12.2 34 1.1 47 47 N 12 19 29.87 1012 7 11.26538 0 0
7:56 pm 19:56 Hazy 52 11.1 33 0.5 48 48 NNE 14 22 29.9 1012 6 9.65604 0 0
8:56 pm 20:56 Clear 45 7.2 33 0.5 63 63 NE 7 11 29.91 1013 7 11.26538 0 0
9:56 pm 21:56 Clear 44 6.6 33 0.5 65 65 ENE 3 6 29.92 1013 8 12.87472 0 0
10:56 pm 22:56 Clear 45 7.2 32 0 61 61 Calm 29.93 1013 7 11.26538 0 0
11:56 pm 23:56 Clear 40 4.4 33 0.5 76 76 Calm 29.93 1014 8 12.87472 0 0

Powered by AerisWeather